Time,TemperatureF,DewpointF,PressureIn,WindDirection,WindDirectionDegrees,WindSpeedMPH,WindSpeedGustMPH,Humidity,HourlyPrecipIn,Conditions,Clouds,dailyrainin,SoftwareType,DateUTC
2012-12-04 00:03:00,46.4,45.1,29.61,West,270,0.2,2.5,95,0.05,,,0.01,WUHU216HW,2012-12-04 08:03:00,
2012-12-04 00:08:00,46.4,45.1,29.60,West,270,0.9,1.8,95,0.05,,,0.01,WUHU216HW,2012-12-04 08:08:00,
2012-12-04 00:13:00,46.4,45.1,29.60,NNW,338,0.7,1.1,95,0.06,,,0.01,WUHU216HW,2012-12-04 08:13:00,
2012-12-04 00:18:00,46.4,45.1,29.60,NNW,338,0.7,1.1,95,0.07,,,0.03,WUHU216HW,2012-12-04 08:18:00,
2012-12-04 00:23:00,46.4,45.1,29.59,West,270,0.2,1.8,95,0.06,,,0.03,WUHU216HW,2012-12-04 08:23:00,
2012-12-04 00:28:00,46.4,45.1,29.59,West,270,0.0,1.8,95,0.07,,,0.03,WUHU216HW,2012-12-04 08:28:00,
2012-12-04 00:33:00,46.3,44.9,29.58,West,270,1.1,1.1,95,0.06,,,0.03,WUHU216HW,2012-12-04 08:33:00,
2012-12-04 00:38:00,46.3,44.9,29.58,WNW,293,1.8,3.8,95,0.07,,,0.05,WUHU216HW,2012-12-04 08:38:00,
2012-12-04 00:43:00,46.3,44.9,29.57,SW,225,2.9,3.8,95,0.07,,,0.06,WUHU216HW,2012-12-04 08:43:00,
2012-12-04 00:48:00,46.3,44.9,29.57,SW,225,2.9,3.6,95,0.08,,,0.07,WUHU216HW,2012-12-04 08:48:00,
2012-12-04 00:53:00,46.3,44.9,29.56,SW,225,1.1,4.0,95,0.08,,,0.08,WUHU216HW,2012-12-04 08:53:00,
2012-12-04 00:58:00,46.3,44.9,29.56,NNE,23,1.1,4.0,95,0.09,,,0.09,WUHU216HW,2012-12-04 08:58:00,
2012-12-04 01:03:00,46.3,44.9,29.56,NE,45,0.0,2.5,95,0.09,,,0.10,WUHU216HW,2012-12-04 09:03:00,
2012-12-04 01:08:00,46.3,44.9,29.55,SSE,158,1.6,1.6,95,0.09,,,0.11,WUHU216HW,2012-12-04 09:08:00,
2012-12-04 01:13:00,46.4,45.1,29.55,NE,45,2.5,3.6,95,0.12,,,0.14,WUHU216HW,2012-12-04 09:13:00,
2012-12-04 01:18:00,46.4,45.1,29.55,NNE,23,0.0,3.6,95,0.12,,,0.15,WUHU216HW,2012-12-04 09:18:00,
2012-12-04 01:23:00,46.4,45.1,29.53,WSW,248,1.8,2.5,95,0.14,,,0.17,WUHU216HW,2012-12-04 09:23:00,
2012-12-04 01:28:00,46.4,45.1,29.53,WSW,248,2.5,4.0,95,0.14,,,0.18,WUHU216HW,2012-12-04 09:28:00,
2012-12-04 01:33:00,46.3,44.9,29.52,West,270,2.0,4.0,95,0.14,,,0.19,WUHU216HW,2012-12-04 09:33:00,
2012-12-04 01:38:00,46.3,44.9,29.53,ENE,68,2.0,3.4,95,0.15,,,0.20,WUHU216HW,2012-12-04 09:38:00,
2012-12-04 01:43:00,46.3,44.9,29.52,North,0,3.4,3.8,95,0.15,,,0.21,WUHU216HW,2012-12-04 09:43:00,
2012-12-04 01:48:00,46.3,44.9,29.53,WNW,293,0.9,3.8,95,0.15,,,0.22,WUHU216HW,2012-12-04 09:48:00,
2012-12-04 01:53:00,46.3,44.9,29.53,WNW,293,0.2,3.4,95,0.15,,,0.23,WUHU216HW,2012-12-04 09:53:00,
2012-12-04 01:58:00,46.3,44.9,29.54,North,0,0.0,1.1,95,0.16,,,0.25,WUHU216HW,2012-12-04 09:58:00,
2012-12-04 02:03:00,46.3,44.9,29.53,North,0,0.4,1.1,95,0.16,,,0.26,WUHU216HW,2012-12-04 10:03:00,
2012-12-04 02:08:00,46.3,44.9,29.53,North,0,0.0,1.1,95,0.14,,,0.27,WUHU216HW,2012-12-04 10:08:00,
2012-12-04 02:13:00,46.3,44.9,29.53,North,0,0.0,0.4,95,0.14,,,0.28,WUHU216HW,2012-12-04 10:13:00,
2012-12-04 02:18:00,46.3,44.9,29.53,WSW,248,1.3,1.6,95,0.13,,,0.29,WUHU216HW,2012-12-04 10:18:00,
2012-12-04 02:23:00,46.3,44.9,29.53,WSW,248,3.1,3.1,95,0.14,,,0.31,WUHU216HW,2012-12-04 10:23:00,
2012-12-04 02:28:00,46.3,44.9,29.53,WSW,248,0.4,3.1,95,0.13,,,0.32,WUHU216HW,2012-12-04 10:28:00,
2012-12-04 02:33:00,46.3,44.9,29.53,WSW,248,0.4,3.1,95,0.14,,,0.33,WUHU216HW,2012-12-04 10:33:00,
2012-12-04 02:38:00,46.3,44.9,29.52,WSW,248,1.1,1.1,95,0.14,,,0.34,WUHU216HW,2012-12-04 10:38:00,
2012-12-04 02:43:00,46.3,44.9,29.52,WSW,248,0.0,1.3,95,0.13,,,0.34,WUHU216HW,2012-12-04 10:43:00,
2012-12-04 02:48:00,46.3,44.9,29.51,WSW,248,0.0,1.3,95,0.12,,,0.35,WUHU216HW,2012-12-04 10:48:00,
2012-12-04 02:53:00,46.3,44.9,29.51,WSW,248,0.0,0.0,95,0.11,,,0.35,WUHU216HW,2012-12-04 10:53:00,
2012-12-04 02:58:00,46.3,44.9,29.51,SW,225,0.7,2.9,95,0.10,,,0.35,WUHU216HW,2012-12-04 10:58:00,
2012-12-04 03:03:00,46.1,44.7,29.51,NNW,338,0.0,2.9,95,0.10,,,0.36,WUHU216HW,2012-12-04 11:03:00,
2012-12-04 03:08:00,46.1,44.7,29.51,WSW,248,0.7,2.7,95,0.08,,,0.36,WUHU216HW,2012-12-04 11:08:00,
2012-12-04 03:13:00,46.1,44.7,29.51,WSW,248,0.7,2.9,95,0.09,,,0.37,WUHU216HW,2012-12-04 11:13:00,
2012-12-04 03:18:00,46.1,44.7,29.50,ESE,113,0.0,2.9,95,0.07,,,0.37,WUHU216HW,2012-12-04 11:18:00,
2012-12-04 03:23:00,46.1,44.7,29.50,NNE,23,0.7,2.5,95,0.07,,,0.38,WUHU216HW,2012-12-04 11:23:00,
2012-12-04 03:28:00,46.1,44.7,29.50,SE,135,1.3,2.5,95,0.07,,,0.39,WUHU216HW,2012-12-04 11:28:00,
2012-12-04 03:33:00,46.1,44.7,29.50,SW,225,0.0,2.2,95,0.06,,,0.39,WUHU216HW,2012-12-04 11:33:00,
2012-12-04 03:38:00,46.1,44.7,29.50,ESE,113,0.2,2.2,95,0.06,,,0.40,WUHU216HW,2012-12-04 11:38:00,
2012-12-04 03:43:00,46.1,44.7,29.50,SW,225,2.5,3.1,95,0.06,,,0.40,WUHU216HW,2012-12-04 11:43:00,
2012-12-04 03:48:00,46.1,44.7,29.50,SSW,203,0.4,3.1,95,0.06,,,0.41,WUHU216HW,2012-12-04 11:48:00,
2012-12-04 03:53:00,46.1,44.7,29.50,SSE,158,1.6,3.8,95,0.06,,,0.41,WUHU216HW,2012-12-04 11:53:00,
2012-12-04 03:58:00,46.1,44.7,29.50,South,180,4.0,4.0,95,0.07,,,0.42,WUHU216HW,2012-12-04 11:58:00,
2012-12-04 04:03:00,46.1,44.7,29.50,SE,135,0.7,4.0,95,0.06,,,0.42,WUHU216HW,2012-12-04 12:03:00,
2012-12-04 04:08:00,46.1,44.7,29.50,WSW,248,2.9,4.9,95,0.05,,,0.42,WUHU216HW,2012-12-04 12:08:00,
2012-12-04 04:13:00,46.3,44.9,29.50,SW,225,1.8,4.9,95,0.05,,,0.42,WUHU216HW,2012-12-04 12:13:00,
2012-12-04 04:18:00,46.3,44.9,29.50,South,180,0.9,6.3,95,0.04,,,0.42,WUHU216HW,2012-12-04 12:18:00,
2012-12-04 04:23:00,46.3,44.9,29.50,WSW,248,3.6,6.9,95,0.04,,,0.42,WUHU216HW,2012-12-04 12:23:00,
2012-12-04 04:28:00,46.3,44.9,29.50,SSE,158,1.1,7.4,95,0.03,,,0.42,WUHU216HW,2012-12-04 12:28:00,
2012-12-04 04:33:00,46.3,44.9,29.51,SW,225,2.7,7.4,95,0.03,,,0.42,WUHU216HW,2012-12-04 12:33:00,
2012-12-04 04:38:00,46.4,45.1,29.51,SW,225,6.3,6.5,95,0.03,,,0.43,WUHU216HW,2012-12-04 12:38:00,
2012-12-04 04:43:00,46.4,45.1,29.51,SSE,158,4.9,6.5,95,0.03,,,0.43,WUHU216HW,2012-12-04 12:43:00,
2012-12-04 04:48:00,46.4,45.1,29.52,WSW,248,2.9,7.6,95,0.02,,,0.43,WUHU216HW,2012-12-04 12:48:00,
2012-12-04 04:53:00,46.6,45.3,29.52,SW,225,2.7,7.6,95,0.01,,,0.43,WUHU216HW,2012-12-04 12:53:00,
2012-12-04 04:58:00,46.8,45.5,29.52,SW,225,2.7,5.8,95,0.01,,,0.43,WUHU216HW,2012-12-04 12:58:00,
2012-12-04 05:03:00,46.8,45.5,29.53,SSW,203,6.5,6.9,95,0.01,,,0.43,WUHU216HW,2012-12-04 13:03:00,
2012-12-04 05:08:00,47.2,46.1,29.53,SW,225,6.7,9.2,96,0.01,,,0.43,WUHU216HW,2012-12-04 13:08:00,
2012-12-04 05:13:00,47.3,46.3,29.53,SSW,203,2.9,9.4,96,0.02,,,0.44,WUHU216HW,2012-12-04 13:13:00,
2012-12-04 05:18:00,47.7,46.6,29.53,SSW,203,5.6,9.4,96,0.02,,,0.44,WUHU216HW,2012-12-04 13:18:00,
2012-12-04 05:23:00,48.1,47.0,29.53,WSW,248,6.0,10.1,96,0.02,,,0.44,WUHU216HW,2012-12-04 13:23:00,
2012-12-04 05:28:00,48.2,47.2,29.54,WSW,248,3.8,10.1,96,0.02,,,0.44,WUHU216HW,2012-12-04 13:28:00,
2012-12-04 05:33:00,48.4,47.4,29.54,SSE,158,7.2,9.2,96,0.02,,,0.44,WUHU216HW,2012-12-04 13:33:00,
2012-12-04 05:38:00,48.6,47.5,29.54,SSW,203,4.9,10.7,96,0.01,,,0.44,WUHU216HW,2012-12-04 13:38:00,
2012-12-04 05:43:00,49.0,47.9,29.55,SSW,203,4.3,10.7,96,0.01,,,0.44,WUHU216HW,2012-12-04 13:43:00,
2012-12-04 05:48:00,49.1,48.1,29.55,SW,225,3.6,10.7,96,0.02,,,0.45,WUHU216HW,2012-12-04 13:48:00,
2012-12-04 05:53:00,49.3,48.3,29.56,SW,225,4.0,10.1,96,0.03,,,0.45,WUHU216HW,2012-12-04 13:53:00,
2012-12-04 05:58:00,49.3,48.3,29.56,SSW,203,2.5,9.8,96,0.03,,,0.46,WUHU216HW,2012-12-04 13:58:00,
2012-12-04 06:03:00,49.5,48.3,29.56,SW,225,5.8,8.7,96,0.04,,,0.47,WUHU216HW,2012-12-04 14:03:00,
2012-12-04 06:08:00,49.5,48.3,29.57,South,180,8.7,11.2,96,0.04,,,0.47,WUHU216HW,2012-12-04 14:08:00,
2012-12-04 06:13:00,49.7,48.5,29.57,East,90,5.1,11.2,96,0.03,,,0.47,WUHU216HW,2012-12-04 14:13:00,
2012-12-04 06:18:00,49.9,48.7,29.58,WSW,248,6.3,11.0,96,0.03,,,0.47,WUHU216HW,2012-12-04 14:18:00,
2012-12-04 06:23:00,50.0,48.9,29.58,WSW,248,4.7,11.4,96,0.03,,,0.47,WUHU216HW,2012-12-04 14:23:00,
2012-12-04 06:28:00,50.0,48.9,29.59,SW,225,6.9,15.7,96,0.04,,,0.48,WUHU216HW,2012-12-04 14:28:00,
2012-12-04 06:33:00,50.0,48.9,29.60,WSW,248,4.0,15.7,96,0.05,,,0.50,WUHU216HW,2012-12-04 14:33:00,
2012-12-04 06:38:00,50.2,49.1,29.60,SW,225,2.5,14.3,96,0.05,,,0.50,WUHU216HW,2012-12-04 14:38:00,
2012-12-04 06:43:00,50.2,49.1,29.60,SW,225,5.1,10.3,96,0.06,,,0.50,WUHU216HW,2012-12-04 14:43:00,
2012-12-04 06:48:00,50.2,49.1,29.60,WSW,248,3.8,8.5,96,0.05,,,0.50,WUHU216HW,2012-12-04 14:48:00,
2012-12-04 06:53:00,50.2,49.1,29.61,South,180,3.4,9.2,96,0.04,,,0.50,WUHU216HW,2012-12-04 14:53:00,
2012-12-04 06:58:00,50.2,49.1,29.61,SSW,203,5.1,9.2,96,0.05,,,0.51,WUHU216HW,2012-12-04 14:58:00,
2012-12-04 07:03:00,50.2,49.1,29.61,SSW,203,2.9,8.9,96,0.04,,,0.51,WUHU216HW,2012-12-04 15:03:00,
2012-12-04 07:08:00,50.2,49.1,29.62,SW,225,4.7,6.5,96,0.04,,,0.51,WUHU216HW,2012-12-04 15:08:00,
2012-12-04 07:13:00,50.2,49.1,29.62,SSW,203,4.0,9.6,96,0.04,,,0.51,WUHU216HW,2012-12-04 15:13:00,
2012-12-04 07:18:00,50.2,49.1,29.62,South,180,8.3,10.5,96,0.04,,,0.51,WUHU216HW,2012-12-04 15:18:00,
2012-12-04 07:23:00,50.2,49.1,29.62,SSW,203,4.5,12.8,96,0.04,,,0.51,WUHU216HW,2012-12-04 15:23:00,
2012-12-04 07:28:00,50.0,48.9,29.62,SW,225,7.4,12.8,96,0.02,,,0.51,WUHU216HW,2012-12-04 15:28:00,
2012-12-04 07:33:00,50.0,48.9,29.62,SSE,158,2.9,10.3,96,0.02,,,0.51,WUHU216HW,2012-12-04 15:33:00,
2012-12-04 07:38:00,50.0,48.9,29.62,SW,225,2.9,10.3,96,0.01,,,0.51,WUHU216HW,2012-12-04 15:38:00,
2012-12-04 07:43:00,50.0,48.9,29.62,WSW,248,4.7,11.4,96,0.01,,,0.51,WUHU216HW,2012-12-04 15:43:00,
2012-12-04 07:48:00,50.0,48.9,29.63,SW,225,6.3,11.4,96,0.01,,,0.51,WUHU216HW,2012-12-04 15:48:00,
2012-12-04 07:53:00,50.0,48.9,29.63,WSW,248,8.5,9.2,96,0.00,,,0.51,WUHU216HW,2012-12-04 15:53:00,
2012-12-04 07:58:00,50.0,48.9,29.63,SW,225,5.8,8.5,96,0.00,,,0.51,WUHU216HW,2012-12-04 15:58:00,
2012-12-04 08:03:00,50.0,48.9,29.63,SW,225,9.2,9.4,96,0.00,,,0.51,WUHU216HW,2012-12-04 16:03:00,
2012-12-04 08:08:00,50.0,48.9,29.64,SW,225,8.9,12.1,96,0.00,,,0.51,WUHU216HW,2012-12-04 16:08:00,
2012-12-04 08:13:00,50.0,48.9,29.64,WSW,248,2.2,12.1,96,0.00,,,0.51,WUHU216HW,2012-12-04 16:13:00,
2012-12-04 08:18:00,50.0,48.9,29.65,WSW,248,7.6,12.3,96,0.00,,,0.51,WUHU216HW,2012-12-04 16:18:00,
2012-12-04 08:23:00,50.0,48.9,29.65,West,270,8.9,13.2,96,0.00,,,0.51,WUHU216HW,2012-12-04 16:23:00,
2012-12-04 08:28:00,50.0,48.9,29.65,SW,225,4.7,13.2,96,0.00,,,0.51,WUHU216HW,2012-12-04 16:28:00,
2012-12-04 08:33:00,50.2,49.1,29.65,WNW,293,6.7,14.3,96,0.00,,,0.51,WUHU216HW,2012-12-04 16:33:00,
2012-12-04 08:38:00,50.2,49.1,29.66,West,270,5.6,14.3,96,0.00,,,0.51,WUHU216HW,2012-12-04 16:38:00,
2012-12-04 08:43:00,50.0,48.9,29.66,SSW,203,6.3,11.6,96,0.00,,,0.51,WUHU216HW,2012-12-04 16:43:00,
2012-12-04 08:48:00,50.2,49.1,29.66,WSW,248,7.8,11.4,96,0.00,,,0.51,WUHU216HW,2012-12-04 16:48:00,
2012-12-04 08:53:00,49.9,48.7,29.67,SSW,203,11.4,18.8,96,0.00,,,0.51,WUHU216HW,2012-12-04 16:53:00,
2012-12-04 08:59:00,49.7,48.5,29.68,WNW,293,8.1,18.8,96,0.00,,,0.51,WUHU216HW,2012-12-04 16:59:00,
2012-12-04 09:04:00,49.5,48.3,29.68,SW,225,9.6,13.9,96,0.00,,,0.51,WUHU216HW,2012-12-04 17:04:00,
2012-12-04 09:09:00,49.3,48.3,29.68,SW,225,8.9,15.2,96,0.00,,,0.51,WUHU216HW,2012-12-04 17:09:00,
2012-12-04 09:14:00,49.3,48.3,29.68,West,270,4.0,15.2,96,0.00,,,0.51,WUHU216HW,2012-12-04 17:14:00,
2012-12-04 09:19:00,49.3,48.3,29.68,South,180,3.6,11.4,96,0.00,,,0.51,WUHU216HW,2012-12-04 17:19:00,
2012-12-04 09:23:00,49.3,48.3,29.68,SSW,203,5.1,9.8,96,0.00,,,0.51,WUHU216HW,2012-12-04 17:23:00,
2012-12-04 09:28:00,49.3,48.3,29.69,SSW,203,6.7,9.8,96,0.00,,,0.51,WUHU216HW,2012-12-04 17:28:00,
2012-12-04 09:33:00,49.3,48.3,29.69,WSW,248,4.7,9.8,96,0.00,,,0.51,WUHU216HW,2012-12-04 17:33:00,
2012-12-04 09:38:00,49.3,48.3,29.70,SW,225,5.8,10.3,96,0.00,,,0.51,WUHU216HW,2012-12-04 17:38:00,
2012-12-04 09:43:00,49.3,48.3,29.70,ENE,68,2.2,10.3,96,0.00,,,0.51,WUHU216HW,2012-12-04 17:43:00,
2012-12-04 09:48:00,49.3,48.3,29.70,WSW,248,6.9,9.4,96,0.00,,,0.51,WUHU216HW,2012-12-04 17:48:00,
2012-12-04 09:54:00,49.3,48.3,29.71,SSW,203,6.0,9.4,96,0.00,,,0.51,WUHU216HW,2012-12-04 17:54:00,
2012-12-04 09:59:00,49.3,48.3,29.71,SSW,203,3.1,12.8,96,0.00,,,0.51,WUHU216HW,2012-12-04 17:59:00,
2012-12-04 10:04:00,49.3,48.3,29.71,SW,225,1.6,12.8,96,0.00,,,0.51,WUHU216HW,2012-12-04 18:04:00,
2012-12-04 10:09:00,49.3,48.3,29.71,SSW,203,6.9,7.6,96,0.00,,,0.51,WUHU216HW,2012-12-04 18:09:00,
2012-12-04 10:14:00,49.3,48.3,29.71,SSW,203,3.8,8.3,96,0.00,,,0.51,WUHU216HW,2012-12-04 18:14:00,
2012-12-04 10:19:00,49.3,48.3,29.72,ESE,113,4.3,9.2,96,0.00,,,0.51,WUHU216HW,2012-12-04 18:19:00,
2012-12-04 10:24:00,49.3,48.3,29.71,South,180,1.3,13.9,96,0.00,,,0.51,WUHU216HW,2012-12-04 18:24:00,
2012-12-04 10:29:00,49.1,48.1,29.71,SW,225,3.8,13.9,96,0.00,,,0.51,WUHU216HW,2012-12-04 18:29:00,
2012-12-04 10:34:00,49.3,47.9,29.71,West,270,1.8,10.5,95,0.00,,,0.51,WUHU216HW,2012-12-04 18:34:00,
2012-12-04 10:39:00,49.3,47.9,29.72,SW,225,4.9,7.4,95,0.00,,,0.51,WUHU216HW,2012-12-04 18:39:00,
2012-12-04 10:44:00,49.3,47.9,29.72,SSW,203,4.0,10.3,95,0.00,,,0.51,WUHU216HW,2012-12-04 18:44:00,
2012-12-04 10:49:00,49.3,47.9,29.73,SSW,203,4.3,10.3,95,0.00,,,0.51,WUHU216HW,2012-12-04 18:49:00,
2012-12-04 10:54:00,49.3,47.9,29.72,SSW,203,5.4,8.1,95,0.00,,,0.51,WUHU216HW,2012-12-04 18:54:00,
2012-12-04 10:59:00,49.3,47.9,29.72,SSW,203,2.7,10.5,95,0.00,,,0.51,WUHU216HW,2012-12-04 18:59:00,
2012-12-04 11:04:00,49.5,48.1,29.73,SW,225,1.6,10.5,95,0.00,,,0.51,WUHU216HW,2012-12-04 19:04:00,
2012-12-04 11:09:00,49.5,48.1,29.73,NE,45,2.0,6.9,95,0.00,,,0.51,WUHU216HW,2012-12-04 19:09:00,
2012-12-04 11:14:00,49.7,48.2,29.73,SW,225,4.5,6.9,95,0.00,,,0.51,WUHU216HW,2012-12-04 19:14:00,
2012-12-04 11:19:00,50.0,48.6,29.72,SSE,158,8.7,8.7,95,0.00,,,0.51,WUHU216HW,2012-12-04 19:19:00,
2012-12-04 11:24:00,50.2,48.8,29.73,West,270,3.6,8.7,95,0.00,,,0.51,WUHU216HW,2012-12-04 19:24:00,
2012-12-04 11:29:00,50.4,49.0,29.73,SSE,158,2.9,10.3,95,0.00,,,0.51,WUHU216HW,2012-12-04 19:29:00,
2012-12-04 11:34:00,50.2,48.8,29.72,WSW,248,6.7,10.3,95,0.00,,,0.51,WUHU216HW,2012-12-04 19:34:00,
2012-12-04 11:39:00,50.0,48.6,29.72,WSW,248,2.7,6.7,95,0.00,,,0.51,WUHU216HW,2012-12-04 19:39:00,
2012-12-04 11:44:00,50.0,48.6,29.72,WSW,248,1.6,6.3,95,0.00,,,0.51,WUHU216HW,2012-12-04 19:44:00,
2012-12-04 11:49:00,50.0,48.6,29.73,SW,225,0.9,6.3,95,0.00,,,0.51,WUHU216HW,2012-12-04 19:49:00,
2012-12-04 11:54:00,49.9,48.4,29.73,WSW,248,3.6,6.3,95,0.00,,,0.51,WUHU216HW,2012-12-04 19:54:00,
2012-12-04 11:59:00,49.7,48.2,29.73,WSW,248,2.7,5.4,95,0.00,,,0.51,WUHU216HW,2012-12-04 19:59:00,
2012-12-04 12:04:00,49.7,48.2,29.73,SSW,203,2.0,5.4,95,0.00,,,0.51,WUHU216HW,2012-12-04 20:04:00,
2012-12-04 12:09:00,49.7,48.2,29.72,SW,225,1.1,4.5,95,0.00,,,0.51,WUHU216HW,2012-12-04 20:09:00,
2012-12-04 12:14:00,49.9,48.4,29.72,SSE,158,3.6,3.6,95,0.00,,,0.51,WUHU216HW,2012-12-04 20:14:00,
2012-12-04 12:19:00,50.0,48.6,29.72,SW,225,2.2,8.1,95,0.00,,,0.51,WUHU216HW,2012-12-04 20:19:00,
2012-12-04 12:24:00,50.0,48.6,29.72,WSW,248,5.1,8.7,95,0.00,,,0.51,WUHU216HW,2012-12-04 20:24:00,
2012-12-04 12:29:00,50.2,48.8,29.71,South,180,5.1,8.7,95,0.00,,,0.51,WUHU216HW,2012-12-04 20:29:00,
2012-12-04 12:34:00,50.0,48.6,29.71,SW,225,3.4,5.8,95,0.00,,,0.51,WUHU216HW,2012-12-04 20:34:00,
2012-12-04 12:39:00,50.0,48.3,29.71,WSW,248,9.6,9.6,94,0.00,,,0.51,WUHU216HW,2012-12-04 20:39:00,
2012-12-04 12:44:00,49.9,48.2,29.71,SSE,158,4.9,9.6,94,0.00,,,0.51,WUHU216HW,2012-12-04 20:44:00,
2012-12-04 12:49:00,49.9,48.2,29.71,SW,225,5.1,8.3,94,0.00,,,0.51,WUHU216HW,2012-12-04 20:49:00,
2012-12-04 12:54:00,49.7,48.0,29.71,SW,225,4.7,10.5,94,0.00,,,0.51,WUHU216HW,2012-12-04 20:54:00,
2012-12-04 12:59:00,49.9,48.2,29.71,WSW,248,1.3,10.5,94,0.00,,,0.51,WUHU216HW,2012-12-04 20:59:00,
2012-12-04 13:04:00,49.9,48.2,29.71,SW,225,6.5,11.2,94,0.00,,,0.51,WUHU216HW,2012-12-04 21:04:00,
2012-12-04 13:09:00,49.9,48.2,29.71,WNW,293,5.1,11.2,94,0.00,,,0.51,WUHU216HW,2012-12-04 21:09:00,
2012-12-04 13:14:00,49.9,48.2,29.70,SSW,203,2.2,10.5,94,0.00,,,0.51,WUHU216HW,2012-12-04 21:14:00,
2012-12-04 13:19:00,49.7,48.0,29.70,SSE,158,1.6,10.5,94,0.00,,,0.51,WUHU216HW,2012-12-04 21:19:00,
2012-12-04 13:24:00,49.7,48.0,29.70,WSW,248,4.3,6.7,94,0.00,,,0.51,WUHU216HW,2012-12-04 21:24:00,
2012-12-04 13:29:00,49.7,47.7,29.70,WSW,248,3.4,6.7,93,0.00,,,0.51,WUHU216HW,2012-12-04 21:29:00,
2012-12-04 13:34:00,49.7,47.7,29.70,SW,225,4.7,7.6,93,0.00,,,0.51,WUHU216HW,2012-12-04 21:34:00,
2012-12-04 13:39:00,49.5,47.5,29.70,West,270,3.8,7.6,93,0.00,,,0.51,WUHU216HW,2012-12-04 21:39:00,
2012-12-04 13:44:00,49.5,47.5,29.70,SW,225,5.1,7.6,93,0.00,,,0.51,WUHU216HW,2012-12-04 21:44:00,
2012-12-04 13:49:00,49.3,47.3,29.70,NNW,338,1.6,9.2,93,0.00,,,0.51,WUHU216HW,2012-12-04 21:49:00,
2012-12-04 13:54:00,49.3,47.3,29.70,SSW,203,4.9,9.2,93,0.00,,,0.51,WUHU216HW,2012-12-04 21:54:00,
2012-12-04 13:59:00,49.3,47.3,29.70,WSW,248,4.7,8.1,93,0.00,,,0.51,WUHU216HW,2012-12-04 21:59:00,
2012-12-04 14:04:00,49.3,47.1,29.69,WSW,248,6.3,10.3,92,0.00,,,0.51,WUHU216HW,2012-12-04 22:04:00,
2012-12-04 14:09:00,49.1,46.9,29.69,SW,225,3.6,12.1,92,0.00,,,0.51,WUHU216HW,2012-12-04 22:09:00,
2012-12-04 14:14:00,49.3,47.1,29.69,SW,225,4.7,12.1,92,0.00,,,0.51,WUHU216HW,2012-12-04 22:14:00,
2012-12-04 14:19:00,49.3,47.1,29.69,NW,315,6.3,8.9,92,0.00,,,0.51,WUHU216HW,2012-12-04 22:19:00,
2012-12-04 14:24:00,49.1,46.9,29.69,SSW,203,3.8,11.9,92,0.00,,,0.51,WUHU216HW,2012-12-04 22:24:00,
2012-12-04 14:29:00,49.1,46.6,29.69,SSW,203,12.5,12.5,91,0.00,,,0.51,WUHU216HW,2012-12-04 22:29:00,
2012-12-04 14:34:00,49.1,46.6,29.69,SW,225,8.5,12.5,91,0.00,,,0.51,WUHU216HW,2012-12-04 22:34:00,
2012-12-04 14:39:00,49.0,46.4,29.69,SW,225,5.4,12.5,91,0.00,,,0.51,WUHU216HW,2012-12-04 22:39:00,
2012-12-04 14:44:00,49.0,46.4,29.70,SSW,203,6.9,11.2,91,0.00,,,0.51,WUHU216HW,2012-12-04 22:44:00,
2012-12-04 14:49:00,49.0,46.4,29.70,West,270,9.8,15.0,91,0.01,,,0.52,WUHU216HW,2012-12-04 22:49:00,
2012-12-04 14:54:00,48.6,46.2,29.70,WSW,248,6.9,15.0,91,0.01,,,0.52,WUHU216HW,2012-12-04 22:54:00,
2012-12-04 14:59:00,48.1,45.6,29.70,WNW,293,2.0,11.4,91,0.01,,,0.52,WUHU216HW,2012-12-04 22:59:00,
2012-12-04 15:04:00,47.9,45.7,29.71,SW,225,3.4,12.1,92,0.01,,,0.52,WUHU216HW,2012-12-04 23:04:00,
2012-12-04 15:09:00,47.5,45.4,29.71,West,270,4.7,12.8,92,0.01,,,0.52,WUHU216HW,2012-12-04 23:09:00,
2012-12-04 15:14:00,47.3,45.2,29.71,SW,225,4.5,12.8,92,0.01,,,0.52,WUHU216HW,2012-12-04 23:14:00,
2012-12-04 15:19:00,47.2,45.0,29.71,WSW,248,8.1,11.9,92,0.01,,,0.52,WUHU216HW,2012-12-04 23:19:00,
2012-12-04 15:24:00,47.2,45.0,29.71,WSW,248,4.9,11.9,92,0.01,,,0.52,WUHU216HW,2012-12-04 23:24:00,
2012-12-04 15:29:00,47.0,45.1,29.71,WSW,248,5.4,9.2,93,0.02,,,0.53,WUHU216HW,2012-12-04 23:29:00,
2012-12-04 15:34:00,46.8,44.9,29.71,SW,225,8.5,9.2,93,0.02,,,0.53,WUHU216HW,2012-12-04 23:34:00,
2012-12-04 15:39:00,46.8,44.9,29.72,West,270,3.1,9.2,93,0.02,,,0.53,WUHU216HW,2012-12-04 23:39:00,
2012-12-04 15:44:00,46.8,44.9,29.71,SW,225,4.3,8.5,93,0.02,,,0.53,WUHU216HW,2012-12-04 23:44:00,
2012-12-04 15:49:00,46.6,44.7,29.71,WSW,248,3.8,7.6,93,0.01,,,0.53,WUHU216HW,2012-12-04 23:49:00,
2012-12-04 15:54:00,46.6,44.7,29.71,West,270,3.4,7.6,93,0.01,,,0.53,WUHU216HW,2012-12-04 23:54:00,
2012-12-04 15:59:00,46.4,44.6,29.71,SSW,203,2.2,5.4,93,0.01,,,0.53,WUHU216HW,2012-12-04 23:59:00,
2012-12-04 16:04:00,46.4,44.6,29.71,NNE,23,1.6,3.4,93,0.01,,,0.53,WUHU216HW,2012-12-05 00:04:00,
2012-12-04 16:09:00,46.4,44.8,29.71,SW,225,3.1,4.0,94,0.01,,,0.53,WUHU216HW,2012-12-05 00:09:00,
2012-12-04 16:14:00,46.3,44.6,29.71,SSE,158,4.5,4.7,94,0.01,,,0.53,WUHU216HW,2012-12-05 00:14:00,
2012-12-04 16:19:00,46.3,44.6,29.71,SSW,203,3.4,6.9,94,0.01,,,0.53,WUHU216HW,2012-12-05 00:19:00,
2012-12-04 16:24:00,46.3,44.6,29.71,SW,225,4.0,6.9,94,0.00,,,0.53,WUHU216HW,2012-12-05 00:24:00,
2012-12-04 16:29:00,46.3,44.6,29.71,South,180,1.3,5.6,94,0.00,,,0.53,WUHU216HW,2012-12-05 00:29:00,
2012-12-04 16:34:00,46.4,44.8,29.70,SW,225,0.9,6.9,94,0.00,,,0.53,WUHU216HW,2012-12-05 00:34:00,
2012-12-04 16:39:00,46.4,44.8,29.71,SSW,203,4.0,6.9,94,0.00,,,0.53,WUHU216HW,2012-12-05 00:39:00,
2012-12-04 16:44:00,46.4,44.8,29.70,SSW,203,5.4,6.9,94,0.00,,,0.53,WUHU216HW,2012-12-05 00:44:00,
2012-12-04 16:49:00,46.6,45.0,29.70,SSW,203,1.1,8.7,94,0.00,,,0.53,WUHU216HW,2012-12-05 00:49:00,
2012-12-04 16:54:00,46.6,45.0,29.70,SW,225,2.2,8.7,94,0.00,,,0.53,WUHU216HW,2012-12-05 00:54:00,
2012-12-04 16:59:00,46.8,45.2,29.71,SSW,203,5.8,8.5,94,0.00,,,0.53,WUHU216HW,2012-12-05 00:59:00,
2012-12-04 17:04:00,47.0,45.4,29.70,SW,225,1.8,8.5,94,0.00,,,0.53,WUHU216HW,2012-12-05 01:04:00,
2012-12-04 17:09:00,47.0,45.4,29.70,South,180,11.2,11.2,94,0.00,,,0.53,WUHU216HW,2012-12-05 01:09:00,
2012-12-04 17:14:00,47.2,45.5,29.70,NE,45,5.6,11.2,94,0.00,,,0.53,WUHU216HW,2012-12-05 01:14:00,
2012-12-04 17:19:00,47.2,45.5,29.70,SW,225,7.2,11.2,94,0.00,,,0.53,WUHU216HW,2012-12-05 01:19:00,
2012-12-04 17:24:00,47.2,45.5,29.69,South,180,0.9,7.2,94,0.00,,,0.53,WUHU216HW,2012-12-05 01:24:00,
2012-12-04 17:29:00,47.0,45.4,29.69,WSW,248,3.4,7.2,94,0.00,,,0.53,WUHU216HW,2012-12-05 01:29:00,
2012-12-04 17:34:00,47.0,45.4,29.68,SSW,203,4.5,5.4,94,0.00,,,0.53,WUHU216HW,2012-12-05 01:34:00,
2012-12-04 17:39:00,46.8,45.2,29.68,SSW,203,2.5,5.4,94,0.00,,,0.53,WUHU216HW,2012-12-05 01:39:00,
2012-12-04 17:44:00,46.8,45.2,29.68,WNW,293,2.2,5.1,94,0.00,,,0.53,WUHU216HW,2012-12-05 01:44:00,
2012-12-04 17:49:00,46.8,45.2,29.68,SSW,203,2.5,4.5,94,0.00,,,0.53,WUHU216HW,2012-12-05 01:49:00,
2012-12-04 17:54:00,46.8,45.2,29.68,SSW,203,2.5,6.0,94,0.00,,,0.53,WUHU216HW,2012-12-05 01:54:00,
2012-12-04 17:59:00,47.0,45.4,29.68,WSW,248,2.9,6.0,94,0.00,,,0.53,WUHU216HW,2012-12-05 01:59:00,
2012-12-04 18:04:00,47.0,45.4,29.68,SSE,158,3.4,5.8,94,0.00,,,0.53,WUHU216HW,2012-12-05 02:04:00,
2012-12-04 18:09:00,47.2,45.5,29.69,SSW,203,5.8,9.8,94,0.00,,,0.53,WUHU216HW,2012-12-05 02:09:00,
2012-12-04 18:14:00,47.3,45.7,29.68,South,180,7.8,9.8,94,0.00,,,0.53,WUHU216HW,2012-12-05 02:14:00,
2012-12-04 18:19:00,47.3,45.7,29.67,SSE,158,3.6,12.1,94,0.00,,,0.53,WUHU216HW,2012-12-05 02:19:00,
2012-12-04 18:24:00,47.5,45.9,29.68,SW,225,4.5,12.1,94,0.00,,,0.53,WUHU216HW,2012-12-05 02:24:00,
2012-12-04 18:29:00,47.5,45.9,29.71,WNW,293,7.6,11.0,94,0.01,,,0.54,WUHU216HW,2012-12-05 02:29:00,
2012-12-04 18:34:00,47.0,45.1,29.71,SSW,203,15.9,15.9,93,0.06,,,0.59,WUHU216HW,2012-12-05 02:34:00,
2012-12-04 18:39:00,46.4,44.6,29.71,WSW,248,8.5,15.9,93,0.07,,,0.61,WUHU216HW,2012-12-05 02:39:00,
2012-12-04 18:44:00,46.1,44.2,29.71,South,180,6.3,15.9,93,0.07,,,0.61,WUHU216HW,2012-12-05 02:44:00,
2012-12-04 18:49:00,45.9,44.3,29.71,WSW,248,8.1,8.7,94,0.07,,,0.61,WUHU216HW,2012-12-05 02:49:00,
2012-12-04 18:54:00,45.7,43.8,29.70,WSW,248,4.0,8.7,93,0.08,,,0.61,WUHU216HW,2012-12-05 02:54:00,
2012-12-04 18:59:00,45.7,43.8,29.71,SW,225,2.0,9.4,93,0.08,,,0.62,WUHU216HW,2012-12-05 02:59:00,
2012-12-04 19:04:00,45.7,43.8,29.71,WSW,248,1.1,9.4,93,0.08,,,0.62,WUHU216HW,2012-12-05 03:04:00,
2012-12-04 19:09:00,45.5,43.7,29.72,SSW,203,5.1,7.8,93,0.09,,,0.63,WUHU216HW,2012-12-05 03:09:00,
2012-12-04 19:14:00,45.4,43.5,29.72,South,180,2.2,7.8,93,0.10,,,0.64,WUHU216HW,2012-12-05 03:14:00,
2012-12-04 19:19:00,45.4,43.5,29.72,WSW,248,4.0,7.6,93,0.10,,,0.64,WUHU216HW,2012-12-05 03:19:00,
2012-12-04 19:24:00,45.4,43.5,29.71,SSW,203,5.6,7.6,93,0.12,,,0.66,WUHU216HW,2012-12-05 03:24:00,
2012-12-04 19:29:00,45.2,43.3,29.71,South,180,4.7,7.6,93,0.07,,,0.66,WUHU216HW,2012-12-05 03:29:00,
2012-12-04 19:34:00,45.2,43.3,29.71,WSW,248,6.5,7.2,93,0.06,,,0.66,WUHU216HW,2012-12-05 03:34:00,
2012-12-04 19:39:00,45.0,43.1,29.71,SW,225,5.6,6.5,93,0.05,,,0.66,WUHU216HW,2012-12-05 03:39:00,
2012-12-04 19:44:00,45.0,43.1,29.70,SW,225,2.9,7.2,93,0.05,,,0.66,WUHU216HW,2012-12-05 03:44:00,
2012-12-04 19:49:00,45.0,43.4,29.70,SSW,203,4.0,7.8,94,0.05,,,0.66,WUHU216HW,2012-12-05 03:49:00,
2012-12-04 19:54:00,45.0,43.4,29.71,SSW,203,2.9,7.8,94,0.04,,,0.66,WUHU216HW,2012-12-05 03:54:00,
2012-12-04 19:59:00,45.0,43.4,29.70,SW,225,3.4,5.4,94,0.04,,,0.66,WUHU216HW,2012-12-05 03:59:00,
2012-12-04 20:04:00,45.0,43.4,29.71,WSW,248,1.1,6.3,94,0.03,,,0.66,WUHU216HW,2012-12-05 04:04:00,
2012-12-04 20:09:00,45.0,43.4,29.71,South,180,3.4,7.6,94,0.03,,,0.66,WUHU216HW,2012-12-05 04:09:00,
2012-12-04 20:14:00,45.0,43.4,29.71,SSW,203,8.9,8.9,94,0.02,,,0.66,WUHU216HW,2012-12-05 04:14:00,
2012-12-04 20:19:00,45.0,43.4,29.71,SSW,203,4.7,8.9,94,0.01,,,0.66,WUHU216HW,2012-12-05 04:19:00,
2012-12-04 20:24:00,45.0,43.4,29.71,SW,225,4.7,9.2,94,0.00,,,0.66,WUHU216HW,2012-12-05 04:24:00,
2012-12-04 20:29:00,45.0,43.4,29.71,SSW,203,2.5,9.2,94,0.00,,,0.66,WUHU216HW,2012-12-05 04:29:00,
2012-12-04 20:34:00,45.0,43.4,29.71,SSW,203,4.0,7.6,94,0.00,,,0.66,WUHU216HW,2012-12-05 04:34:00,
2012-12-04 20:39:00,45.0,43.4,29.72,West,270,4.3,11.6,94,0.00,,,0.66,WUHU216HW,2012-12-05 04:39:00,
2012-12-04 20:44:00,45.0,43.4,29.73,SW,225,4.3,11.6,94,0.00,,,0.66,WUHU216HW,2012-12-05 04:44:00,
2012-12-04 20:49:00,45.0,43.4,29.73,SW,225,5.4,6.7,94,0.00,,,0.66,WUHU216HW,2012-12-05 04:49:00,
2012-12-04 20:54:00,45.0,43.4,29.73,SW,225,7.2,8.9,94,0.00,,,0.66,WUHU216HW,2012-12-05 04:54:00,
2012-12-04 20:59:00,45.0,43.4,29.73,SW,225,2.9,11.0,94,0.00,,,0.66,WUHU216HW,2012-12-05 04:59:00,
2012-12-04 21:00:00,45.0,43.4,29.73,South,180,6.3,11.0,94,0.00,,,0.66,WUHU216HW,2012-12-05 05:00:00,
2012-12-04 21:02:00,45.0,43.4,29.73,South,180,6.7,11.0,94,0.00,,,0.66,WUHU216HW,2012-12-05 05:02:00,
2012-12-04 21:07:00,45.0,43.4,29.72,SW,225,2.5,10.7,94,0.00,,,0.66,WUHU216HW,2012-12-05 05:07:00,
2012-12-04 21:12:00,45.0,43.4,29.72,WSW,248,3.8,13.6,94,0.00,,,0.66,WUHU216HW,2012-12-05 05:12:00,
2012-12-04 21:17:00,45.0,43.4,29.73,WSW,248,4.7,13.6,94,0.00,,,0.66,WUHU216HW,2012-12-05 05:17:00,
2012-12-04 21:22:00,45.0,43.4,29.73,WSW,248,3.1,10.7,94,0.01,,,0.66,WUHU216HW,2012-12-05 05:22:00,
2012-12-04 21:27:00,45.2,43.6,29.73,SW,225,7.6,16.3,94,0.01,,,0.66,WUHU216HW,2012-12-05 05:27:00,
2012-12-04 21:32:00,45.2,43.6,29.74,SSW,203,5.8,16.3,94,0.01,,,0.66,WUHU216HW,2012-12-05 05:32:00,
2012-12-04 21:37:00,45.2,43.6,29.74,SSW,203,5.1,12.1,94,0.01,,,0.66,WUHU216HW,2012-12-05 05:37:00,
2012-12-04 21:42:00,45.2,43.6,29.75,SW,225,2.7,10.5,94,0.01,,,0.66,WUHU216HW,2012-12-05 05:42:00,
2012-12-04 21:47:00,45.2,43.6,29.75,SSW,203,3.4,10.5,94,0.01,,,0.66,WUHU216HW,2012-12-05 05:47:00,
2012-12-04 21:52:00,45.0,43.4,29.75,SW,225,3.4,10.7,94,0.01,,,0.66,WUHU216HW,2012-12-05 05:52:00,
2012-12-04 21:57:00,45.0,43.4,29.76,SW,225,6.9,13.0,94,0.01,,,0.66,WUHU216HW,2012-12-05 05:57:00,
2012-12-04 22:02:00,45.0,43.4,29.76,SW,225,6.9,13.0,94,0.01,,,0.66,WUHU216HW,2012-12-05 06:02:00,
2012-12-04 22:07:00,45.0,43.4,29.76,SW,225,6.7,8.9,94,0.01,,,0.66,WUHU216HW,2012-12-05 06:07:00,
2012-12-04 22:12:00,45.0,43.4,29.77,SW,225,6.5,8.9,94,0.01,,,0.66,WUHU216HW,2012-12-05 06:12:00,
2012-12-04 22:17:00,44.8,43.2,29.77,South,180,5.4,8.9,94,0.01,,,0.66,WUHU216HW,2012-12-05 06:17:00,
2012-12-04 22:22:00,44.8,43.2,29.77,SSW,203,3.8,9.2,94,0.00,,,0.66,WUHU216HW,2012-12-05 06:22:00,
2012-12-04 22:27:00,44.8,43.2,29.77,SSE,158,1.8,10.3,94,0.00,,,0.66,WUHU216HW,2012-12-05 06:27:00,
2012-12-04 22:32:00,44.6,43.0,29.77,SSE,158,0.7,10.3,94,0.00,,,0.66,WUHU216HW,2012-12-05 06:32:00,
2012-12-04 22:37:00,44.6,43.0,29.77,SSW,203,7.4,8.1,94,0.00,,,0.66,WUHU216HW,2012-12-05 06:37:00,
2012-12-04 22:42:00,44.6,43.0,29.78,South,180,7.2,8.1,94,0.00,,,0.66,WUHU216HW,2012-12-05 06:42:00,
2012-12-04 22:47:00,44.6,43.0,29.78,WSW,248,7.2,11.4,94,0.00,,,0.66,WUHU216HW,2012-12-05 06:47:00,
2012-12-04 22:52:00,44.6,43.0,29.78,SW,225,3.1,12.5,94,0.00,,,0.66,WUHU216HW,2012-12-05 06:52:00,
2012-12-04 22:57:00,44.6,43.0,29.78,West,270,7.4,12.5,94,0.00,,,0.66,WUHU216HW,2012-12-05 06:57:00,
2012-12-04 23:02:00,44.6,43.0,29.78,SW,225,2.5,11.4,94,0.00,,,0.66,WUHU216HW,2012-12-05 07:02:00,
2012-12-04 23:07:00,44.5,42.8,29.78,WSW,248,2.0,10.5,94,0.00,,,0.66,WUHU216HW,2012-12-05 07:07:00,
2012-12-04 23:12:00,44.5,42.8,29.79,SW,225,3.4,10.5,94,0.00,,,0.66,WUHU216HW,2012-12-05 07:12:00,
2012-12-04 23:17:00,44.3,42.7,29.79,SW,225,4.5,9.8,94,0.00,,,0.66,WUHU216HW,2012-12-05 07:17:00,
2012-12-04 23:22:00,44.5,42.8,29.80,NNW,338,2.5,9.8,94,0.00,,,0.66,WUHU216HW,2012-12-05 07:22:00,
2012-12-04 23:27:00,44.5,42.8,29.80,SSW,203,6.9,9.2,94,0.00,,,0.66,WUHU216HW,2012-12-05 07:27:00,
2012-12-04 23:32:00,44.5,42.8,29.81,SSE,158,4.0,11.0,94,0.00,,,0.66,WUHU216HW,2012-12-05 07:32:00,
2012-12-04 23:37:00,44.5,42.8,29.81,SSE,158,1.8,11.0,94,0.00,,,0.66,WUHU216HW,2012-12-05 07:37:00,
2012-12-04 23:42:00,44.3,42.7,29.81,South,180,2.5,7.2,94,0.00,,,0.66,WUHU216HW,2012-12-05 07:42:00,
2012-12-04 23:47:00,44.1,42.5,29.81,SSW,203,7.2,11.2,94,0.00,,,0.66,WUHU216HW,2012-12-05 07:47:00,
2012-12-04 23:52:00,43.9,42.0,29.82,SSE,158,2.5,11.2,93,0.00,,,0.66,WUHU216HW,2012-12-05 07:52:00,
2012-12-04 23:57:00,43.9,42.0,29.82,SSW,203,6.3,9.8,93,0.00,,,0.66,WUHU216HW,2012-12-05 07:57:00,